Location: Burla
(50.9568°N, 10.4983°E)
Time: 23:23:46
(UTC+00:00)

Cosmos 1862 Rocket - Pass Details

Date: 18 January 2026
Orbit: 596 x 627 km, 82.5° (Epoch: 16 February)

Event Time Altitude Azimuth Distance (km) Brightness Sun altitude
Exits shadow 05:59:52 - 338° (NNW) 2,462 6.2 -11.0°
Reaches altitude 10° 06:01:12 10° 332° (NNW) 1,966 5.7 -10.8°
Maximum altitude 06:05:01 31° 270° (W) 1,076 4.3 -10.3°
Drops below altitude 10° 06:08:47 10° 209° (SSW) 1,938 6.0 -9.7°
Sets 06:11:09 0° 199° (SSW) 2,832 7.0 -9.4°
